TimeCST,TemperatureF,Dew PointF,Humidity,Sea Level PressureIn,VisibilityMPH,Wind Direction,Wind SpeedMPH,Gust SpeedMPH,PrecipitationIn,Events,Conditions,WindDirDegrees,DateUTC
12:54 AM,44.1,39.9,85,30.12,10.0,West,5.8,-,N/A,,Scattered Clouds,260,2013-11-05 06:54:00
1:54 AM,43.0,37.0,80,30.14,10.0,West,6.9,-,N/A,,Partly Cloudy,280,2013-11-05 07:54:00
2:54 AM,41.0,34.0,76,30.16,10.0,WSW,4.6,-,N/A,,Clear,240,2013-11-05 08:54:00
3:54 AM,39.0,34.0,82,30.17,10.0,Calm,Calm,-,N/A,,Partly Cloudy,0,2013-11-05 09:54:00
4:54 AM,34.0,32.0,92,30.20,10.0,Calm,Calm,-,N/A,,Clear,0,2013-11-05 10:54:00
5:54 AM,33.1,32.0,96,30.22,10.0,Calm,Calm,-,N/A,,Clear,0,2013-11-05 11:54:00
6:54 AM,32.0,30.9,96,30.24,9.0,Calm,Calm,-,N/A,,Clear,0,2013-11-05 12:54:00
7:54 AM,37.0,34.0,89,30.24,10.0,Calm,Calm,-,N/A,,Clear,0,2013-11-05 13:54:00
8:54 AM,41.0,33.1,73,30.25,10.0,Calm,Calm,-,N/A,,Clear,0,2013-11-05 14:54:00
9:54 AM,44.1,33.1,65,30.25,10.0,SSW,5.8,-,N/A,,Clear,200,2013-11-05 15:54:00
10:54 AM,46.0,33.1,61,30.23,10.0,South,3.5,-,N/A,,Clear,190,2013-11-05 16:54:00
11:54 AM,48.9,32.0,52,30.23,10.0,SW,10.4,-,N/A,,Clear,230,2013-11-05 17:54:00
12:54 PM,52.0,30.9,45,30.19,10.0,WSW,5.8,-,N/A,,Clear,240,2013-11-05 18:54:00
1:54 PM,51.1,28.9,43,30.18,10.0,West,4.6,-,N/A,,Clear,280,2013-11-05 19:54:00
2:54 PM,50.0,28.9,44,30.16,10.0,Calm,Calm,-,N/A,,Clear,0,2013-11-05 20:54:00
3:54 PM,48.0,30.9,52,30.16,10.0,NW,3.5,-,N/A,,Overcast,310,2013-11-05 21:54:00
4:54 PM,46.0,32.0,58,30.14,10.0,Calm,Calm,-,N/A,,Overcast,0,2013-11-05 22:54:00
5:54 PM,46.9,33.1,59,30.14,10.0,Calm,Calm,-,N/A,,Overcast,0,2013-11-05 23:54:00
6:54 PM,43.0,37.9,82,30.14,6.0,Calm,Calm,-,0.00,Rain,Light Rain,0,2013-11-06 00:54:00
7:39 PM,42.8,35.6,76,30.07,5.0,ENE,3.5,-,0.02,Rain,Light Rain,60,2013-11-06 01:39:00
7:54 PM,42.1,37.0,82,30.10,6.0,NNE,4.6,-,0.03,Rain,Light Rain,30,2013-11-06 01:54:00
8:54 PM,41.0,37.9,89,30.04,10.0,North,5.8,-,0.02,Rain,Light Rain,10,2013-11-06 02:54:00
9:15 PM,39.2,37.4,93,30.00,5.0,NNE,6.9,-,0.01,Rain,Light Rain,30,2013-11-06 03:15:00
9:54 PM,39.9,37.0,89,30.03,6.0,Calm,Calm,-,0.03,Rain,Light Rain,0,2013-11-06 03:54:00
10:50 PM,39.2,35.6,87,29.95,7.0,North,8.1,-,0.04,Rain,Light Rain,360,2013-11-06 04:50:00
10:54 PM,39.0,36.0,89,29.98,6.0,NNE,8.1,-,0.04,Rain,Light Rain,20,2013-11-06 04:54:00
11:54 PM,35.1,33.1,92,29.99,6.0,North,11.5,-,0.05,Rain,Rain,350,2013-11-06 05:54:00